Saipan, MP

12:23 AM ChST on February 23, 2017 (GMT +1000)
Saipan International

Weather History for PGSN - October, 2012

Change the Weather History Date:

Friday, October 5, 2012

  Actual Average Record
Temperature  
Mean Temperature 82 °F -  
Max Temperature 86 °F 84 °F 90 °F (2016)
Min Temperature 78 °F 76 °F 69 °F (2007)
Cooling Degree Days 17    
Growing Degree Days 32 (Base 50)    
Moisture  
Dew Point 76 °F    
Average Humidity 83    
Maximum Humidity 89    
Minimum Humidity 72    
Precipitation  
Precipitation 0.37 in - - ()
Sea Level Pressure  
Sea Level Pressure 29.78 in    
Wind  
Wind Speed 8 mph (South)    
Max Wind Speed 20 mph    
Max Gust Speed 25 mph    
Visibility 9 miles    
Events Rain    
Averages and records for this station are not official NWS values.
T = Trace of Precipitation, MM = Missing Value Source: NWS Daily Summary

Daily Weather History Graph

Daily Weather History Graph

Search for Another Location

Airport or City:

Trip Planner

Search our weather history database for the weather conditions in past years. The results will help you decide how hot, cold, wet, or windy it might be!

Date:

Astronomy

Oct. 05, 2012 Rise Set
Actual Time 6:07 AM ChST 6:03 PM ChST
Civil Twilight 5:45 AM ChST 6:25 PM ChST
Nautical Twilight 5:20 AM ChST 6:49 PM ChST
Astronomical Twilight 4:56 AM ChST 7:14 PM ChST
Moon 9:37 PM ChST (10/5) 10:00 AM ChST (10/5)
Length of Visible Light 12h 39m
Length of Day
11h 56m
Waning Gibbous, 79% of the Moon is Illuminated
Oct 5
Waning Gibbous
Oct 8
Last Quarter
Oct 15
New
Oct 22
First Quarter
Oct 30
Full

Hourly Weather History & Observations

Time (ChST) Temp. Heat Index Dew Point Humidity Pressure Visibility Wind Dir Wind Speed Gust Speed Precip Events Conditions
12:54 AM 81.0 °F 87.9 °F 77.0 °F 88% 29.75 in 10.0 mi SE 5.8 mph - N/A   Mostly Cloudy
1:54 AM 81.0 °F 87.3 °F 75.9 °F 85% 29.74 in 10.0 mi ESE 4.6 mph - N/A   Partly Cloudy
2:54 AM 82.0 °F 89.4 °F 75.9 °F 82% 29.73 in 10.0 mi SE 3.5 mph - N/A   Mostly Cloudy
3:54 AM 82.0 °F 89.4 °F 75.9 °F 82% 29.73 in 10.0 mi SSE 8.1 mph - N/A   Mostly Cloudy
4:54 AM 82.0 °F 89.4 °F 75.9 °F 82% 29.74 in 10.0 mi SSE 8.1 mph - 0.01 in   Partly Cloudy
5:54 AM 82.0 °F 89.4 °F 75.9 °F 82% 29.76 in 10.0 mi South 8.1 mph - N/A   Scattered Clouds
6:54 AM 82.0 °F 89.4 °F 75.9 °F 82% 29.79 in 10.0 mi South 11.5 mph - N/A   Scattered Clouds
7:54 AM 82.0 °F 90.2 °F 77.0 °F 85% 29.81 in 10.0 mi South 11.5 mph - 0.13 in Rain Light Rain
8:54 AM 82.9 °F 91.8 °F 77.0 °F 82% 29.82 in 10.0 mi SSW 12.7 mph - 0.01 in Rain Light Rain
9:54 AM 84.0 °F 93.7 °F 77.0 °F 79% 29.83 in 10.0 mi SSW 11.5 mph - 0.00 in   Scattered Clouds
10:54 AM 84.9 °F 94.1 °F 75.9 °F 74% 29.82 in 10.0 mi SSW 12.7 mph - N/A   Clear
11:54 AM 86.0 °F 96.0 °F 75.9 °F 72% 29.80 in 10.0 mi SSW 10.4 mph - N/A   Scattered Clouds
12:54 PM 86.0 °F 96.9 °F 77.0 °F 74% 29.79 in 10.0 mi South 10.4 mph - N/A   Scattered Clouds
1:54 PM 84.9 °F 95.3 °F 77.0 °F 77% 29.78 in 10.0 mi South 6.9 mph - N/A   Scattered Clouds
2:50 PM 82.4 °F 90.9 °F 77.0 °F 84% 29.72 in 5.0 mi South 16.1 mph 25.3 mph 0.02 in   Overcast
2:54 PM 80.1 °F 85.4 °F 75.9 °F 87% 29.79 in 4.0 mi South 19.6 mph 25.3 mph 0.02 in   Overcast
3:01 PM 78.8 °F - 75.2 °F 89% 29.72 in 1.8 mi SSW 9.2 mph 25.3 mph 0.04 in   Mostly Cloudy
3:09 PM 78.8 °F - 75.2 °F 89% 29.72 in 1.8 mi SW 6.9 mph - 0.09 in   Mostly Cloudy
3:15 PM 78.8 °F - 75.2 °F 89% 29.72 in 3.0 mi SW 6.9 mph - 0.11 in   Mostly Cloudy
3:54 PM 82.0 °F 90.2 °F 77.0 °F 85% 29.79 in 10.0 mi SSW 3.5 mph - 0.15 in   Overcast
4:01 PM 82.4 °F 92.4 °F 78.8 °F 89% 29.73 in 10.0 mi SSW 5.8 mph - N/A   Overcast
4:11 PM 84.2 °F 96.1 °F 78.8 °F 84% 29.73 in 10.0 mi SSW 6.9 mph - N/A   Mostly Cloudy
4:54 PM 82.0 °F 90.2 °F 77.0 °F 85% 29.81 in 9.0 mi SSW 11.5 mph - 0.01 in Rain Light Rain
5:54 PM 80.1 °F 85.4 °F 75.9 °F 87% 29.80 in 10.0 mi SSW 8.1 mph - 0.03 in   Mostly Cloudy
6:54 PM 80.1 °F 85.4 °F 75.9 °F 87% 29.83 in 10.0 mi South 6.9 mph - N/A   Scattered Clouds
7:54 PM 81.0 °F 87.3 °F 75.9 °F 85% 29.85 in 10.0 mi South 4.6 mph - N/A   Overcast
8:54 PM 81.0 °F 86.7 °F 75.0 °F 82% 29.87 in 10.0 mi South 6.9 mph - N/A   Scattered Clouds
9:54 PM 82.0 °F 89.4 °F 75.9 °F 82% 29.86 in 10.0 mi SE 3.5 mph - 0.01 in   Scattered Clouds
10:54 PM 82.9 °F 90.8 °F 75.9 °F 79% 29.85 in 10.0 mi SE 11.5 mph - 0.00 in Rain Light Rain
11:49 PM 82.4 °F 89.5 °F 75.2 °F 79% 29.77 in 10.0 mi SE 15.0 mph 20.7 mph 0.00 in   Overcast
11:54 PM 82.0 °F 89.4 °F 75.9 °F 82% 29.83 in 10.0 mi SE 11.5 mph 20.7 mph 0.00 in   Overcast